Home > Time Zones > World Clock > Weather > Iran > Kerman > Past weeks

Flag for Iran Weather past 2 weeks in Kerman, Iran

Now
61 °F

Clear.


Feels Like: 61 °F
Forecast: 38 / 78 °F
Wind: 7 mph from North

Location: Kerman Airport

Current Time: Oct 23, 2014 at 8:04:54 PM

Latest Report: Oct 23, 2014 at 7:30 PM


Visibility: 10 mi

Pressure: 30.24 "Hg

Humidity: 19%

Dew point: 18 °F

Location of KermanLocation

Historic Weather in Kerman — Graph

°F

Kerman temperature yesterday

Maximum temperature yesterday: 79 °F (at 3:00 PM)
Minimum temperature yesterday: 54 °F (at 6:30 AM)
Average temperature yesterday: 68 °F

Past Weeks' High & Low Weather Summary

 TemperatureHumidityPressure
High84 °F (Oct 16, 2:00 PM)56% (Oct 13, 5:30 AM)30.36 "Hg (Oct 13, 5:30 AM)
Low39 °F (Oct 13, 5:30 AM)5% (Oct 14, 11:00 AM)30.04 "Hg (Oct 18, 3:00 PM)
Average67 °F22%30.22 "Hg
* Reported Oct 8 6:30 PM — Oct 23 6:30 PM, Kerman, Weather by CustomWeather, © 2014

Note: Actual official high and low records may vary slightly from our data, if they occured in-between our weather recording intervals... More about our weather records

Advertising

Kerman weather history for previous 24 hours

 ConditionsComfort  
Time TempWeatherWind HumidityBarometerVisibility
6:30 PM
Oct 23
63 °FClear.7 mph19%30.24 "Hg10 mi
6:00 PM66 °FClear.9 mph17%30.21 "Hg10 mi
5:30 PM68 °FSunny.7 mph16%30.21 "Hg10 mi
5:00 PM72 °FSunny.5 mph14%30.21 "Hg10 mi
4:30 PM75 °FSunny.5 mph12%30.18 "Hg10 mi
4:00 PM77 °FSunny.7 mph11%30.18 "Hg10 mi
3:30 PM77 °FSunny.5 mph11%30.21 "Hg10 mi
3:00 PM77 °FSunny.7 mph11%30.21 "Hg10 mi
2:30 PM77 °FSunny.5 mph12%30.21 "Hg10 mi
2:00 PM77 °FSunny.No wind11%30.21 "Hg10 mi
1:30 PM75 °FSunny.No wind12%30.21 "Hg10 mi
1:00 PM73 °FSunny.7 mph14%30.24 "Hg10 mi
12:30 PM73 °FSunny.5 mph14%30.27 "Hg10 mi
12:00 PM72 °FSunny.7 mph16%30.27 "Hg10 mi
11:30 AM72 °FSunny.5 mph16%30.27 "Hg10 mi
11:00 AM72 °FSunny.5 mph15%30.30 "Hg10 mi
10:30 AM70 °FSunny.5 mph17%30.30 "Hg10 mi
10:00 AM68 °FSunny.5 mph17%30.33 "Hg10 mi
9:30 AM66 °FSunny.No wind19%30.33 "Hg10 mi
9:00 AM66 °FSunny.No wind18%30.33 "Hg10 mi
8:30 AM63 °FSunny.5 mph22%30.33 "Hg10 mi
7:30 AM55 °FSunny.5 mph24%30.30 "Hg10 mi
6:30 AM41 °FSunny.5 mph39%30.27 "Hg10 mi
5:30 AM41 °FClear.5 mph39%30.27 "Hg10 mi
4:30 AM43 °FClear.7 mph36%30.24 "Hg10 mi
3:30 AM45 °FClear.7 mph34%30.24 "Hg10 mi
2:30 AM45 °FClear.7 mph37%30.24 "Hg10 mi
1:30 AM48 °FClear.5 mph29%30.24 "Hg10 mi
12:30 AM50 °FClear.5 mph28%30.24 "Hg10 mi
11:30 PM
Oct 22
54 °FClear.5 mph26%30.21 "Hg10 mi
10:30 PM57 °FClear.5 mph25%30.21 "Hg10 mi
9:30 PM61 °FClear.9 mph22%30.21 "Hg10 mi
8:30 PM63 °FPassing clouds.9 mph19%30.18 "HgN/A
Weather by CustomWeather, © 2014

See weather overviewHow to use our weather pages